(285722) = 2000 SJ308

Discovered at Socorro on 2000-09-30 by LINEAR.

Orbit

Orbit type: Main Belt

Note: WebGL enabled browser required.

epoch2024-03-31.0
epoch JD2460400.5
perihelion date2021-12-21.15937
perihelion JD2459569.65937
argument of perihelion (°)117.27830
ascending node (°)261.17171
inclination (°)10.70144
eccentricity0.1250137
perihelion distance (AU)2.6678876
Tisserand w.r.t. Jupiter3.2
ΔV w.r.t. Earth (km/sec)10.7
semimajor axis (AU)3.0490621
mean anomaly (°)153.80561
mean daily motion (°/day)0.18512050
aphelion distance (AU)3.430
period (years)5.32
P-vector [x]0.93332553
P-vector [y]0.22688923
P-vector [z]0.27825301
Q-vector [x]-0.30860064
Q-vector [y]0.90305396
Q-vector [z]0.29876277
absolute magnitude15.57
phase slope0.15
uncertainty0
referenceMPEC 2024-F28
observations used407
oppositions15
arc length (days)8570
first opposition used2000
last opposition used2024
residual rms (arc-secs)0.69
perturbers coarse indicatorM-v
perturbers precise indicator003Ek
first observation date used2000-09-30.0
last observation date used2024-03-18.0
computer nameMPCLINUX
JD of orbit computation2455988.776797
perihelion JD uncertainty (days)5.0381E-04
argument of perihelion uncertainty (°)1.2231E-04
ascending node uncertainty (°)4.6318E-05
inclination uncertainty (°)1.2570E-05
eccentricity uncertainty 9.2330E-08
perihelion distance uncertainty (AU)2.6916E-07
Minimum Orbit Intersection Distances (in AU)
for orbit epoch: 2460400.5, reference: E2024-GF4
Mercury2.33656
Venus1.96487
Earth1.69214
Mars1.24995
Jupiter2.08285
Saturn6.05043
Uranus15.1389
Neptune27.1029

Observations

415 total observations over interval: 2000 09 30.33746 – 2024 03 18.438850
These data are available for download (format description).

Date (UT) J2000 RA J2000 Dec Magn Location Ref
2000 09 30.33746 01 32 34.62 +25 05 03.1 18.3   704 – Lincoln Laboratory ETS, New Mexico MPS 20263
2000 09 30.35218 01 32 34.07 +25 04 59.3 18.8   704 – Lincoln Laboratory ETS, New Mexico MPS 20263
2000 09 30.36748 01 32 33.41 +25 04 56.1 18.6   704 – Lincoln Laboratory ETS, New Mexico MPS 20263
2000 09 30.38222 01 32 32.74 +25 04 53.0 18.5   704 – Lincoln Laboratory ETS, New Mexico MPS 20263
2000 10 03.32982 01 30 30.26 +24 53 49.7 19.3   704 – Lincoln Laboratory ETS, New Mexico MPS 20263
2000 10 03.34440 01 30 29.59 +24 53 45.8 19.6   704 – Lincoln Laboratory ETS, New Mexico MPS 20263
2000 10 03.36050 01 30 28.87 +24 53 41.6 20.1   704 – Lincoln Laboratory ETS, New Mexico MPS 20263
2000 10 03.37610 01 30 28.19 +24 53 39.3 20.0   704 – Lincoln Laboratory ETS, New Mexico MPS 20263
2000 10 03.39105 01 30 27.61 +24 53 33.7 20.0   704 – Lincoln Laboratory ETS, New Mexico MPS 20263
2000 11 01.23844 01 09 07.08 +21 40 48.2 19.5   704 – Lincoln Laboratory ETS, New Mexico MPS 21413
2000 11 01.25246 01 09 06.53 +21 40 42.5 19.3   704 – Lincoln Laboratory ETS, New Mexico MPS 21413
2000 11 01.28205 01 09 05.35 +21 40 28.8 19.1   704 – Lincoln Laboratory ETS, New Mexico MPS 21413
2000 11 19.25192 01 01 14.23 +19 13 48.5 19.8   704 – Lincoln Laboratory ETS, New Mexico MPS 22570
2000 11 19.26751 01 01 14.04 +19 13 42.3 19.5   704 – Lincoln Laboratory ETS, New Mexico MPS 22571
2000 11 19.28313 01 01 13.83 +19 13 36.6 19.8   704 – Lincoln Laboratory ETS, New Mexico MPS 22571
2005 09 03.27093 23 01 35.98 +12 01 09.6 19.7 R 683 – Goodricke-Pigott Observatory, Tucson MPS 180764
2005 09 03.28459 23 01 35.38 +12 01 09.2 20.6 R 683 – Goodricke-Pigott Observatory, Tucson MPS 180764
2005 09 03.29829 23 01 34.67 +12 01 05.8 20.2 R 683 – Goodricke-Pigott Observatory, Tucson MPS 180764
2005 09 11.23455 22 55 29.58 +11 30 32.6 19.5   704 – Lincoln Laboratory ETS, New Mexico MPS 180764
2005 09 11.24590 22 55 29.09 +11 30 29.0 19.9   704 – Lincoln Laboratory ETS, New Mexico MPS 180764
2005 09 11.25772 22 55 28.49 +11 30 26.8 19.7   704 – Lincoln Laboratory ETS, New Mexico MPS 180764
2005 09 11.26908 22 55 27.98 +11 30 23.0 19.9   704 – Lincoln Laboratory ETS, New Mexico MPS 180764
2005 09 11.28051 22 55 27.38 +11 30 20.3 19.8   704 – Lincoln Laboratory ETS, New Mexico MPS 180764
2005 09 30.18960 22 42 41.17 +09 42 32.4 19.9 R 644 – Palomar Mountain/NEAT MPS 180764
2005 09 30.21073 22 42 40.45 +09 42 24.8 19.9 R 644 – Palomar Mountain/NEAT MPS 180764
2005 09 30.23331 22 42 39.70 +09 42 15.7 19.7 R 644 – Palomar Mountain/NEAT MPS 180764
2005 10 08.15878 22 39 02.01 +08 50 54.8 19.7 V 703 – Catalina Sky Survey MPS 180764
2005 10 08.16471 22 39 01.87 +08 50 52.8 19.8 V 703 – Catalina Sky Survey MPS 180764
2005 10 08.17059 22 39 01.80 +08 50 49.8 20.2 V 703 – Catalina Sky Survey MPS 180764
2005 10 08.17645 22 39 01.54 +08 50 47.6 20.1 V 703 – Catalina Sky Survey MPS 180764
2006 12 14.33860 06 49 49.07 +19 07 10.4 20.3 V 691 – Steward Observatory, Kitt Peak-Spacewatch MPS 191804
2006 12 14.35590 06 49 48.17 +19 07 07.5 20.0 V 691 – Steward Observatory, Kitt Peak-Spacewatch MPS 191804
2006 12 14.37314 06 49 47.28 +19 07 04.6 20.2 V 691 – Steward Observatory, Kitt Peak-Spacewatch MPS 191804
2008 02 29.39756 11 22 22.76 -12 12 51.9 20.8 V G96 – Mt. Lemmon Survey MPS 239307
2008 02 29.40369 11 22 22.44 -12 12 51.1 20.5 V G96 – Mt. Lemmon Survey MPS 239307
2008 02 29.40986 11 22 22.18 -12 12 49.9 20.3 V G96 – Mt. Lemmon Survey MPS 239307
2008 02 29.41608 11 22 21.93 -12 12 48.7 20.5 V G96 – Mt. Lemmon Survey MPS 239307
2010 08 01.487612 21 01 19.995 -03 12 15.33 19.54 i F51 – Pan-STARRS 1, Haleakala MPS 365369
2010 08 01.499540 21 01 19.389 -03 12 15.80 19.36 i F51 – Pan-STARRS 1, Haleakala MPS 365369
2010 08 02.92242 21 00 09.98 -03 13 05.6 20.0 V J75 – OAM Observatory, La Sagra MPS 341620
2010 08 02.93422 21 00 09.41 -03 13 06.8 19.3 V J75 – OAM Observatory, La Sagra MPS 341620
2010 08 02.94604 21 00 08.82 -03 13 06.7 19.0 V J75 – OAM Observatory, La Sagra MPS 341620
2010 08 05.28284 20 58 13.53 -03 15 01.3 19.0   704 – Lincoln Laboratory ETS, New Mexico MPS 341620
2010 08 05.30727 20 58 12.31 -03 15 02.2 19.9   704 – Lincoln Laboratory ETS, New Mexico MPS 341620
2010 08 05.31941 20 58 11.75 -03 15 03.5 20.6   704 – Lincoln Laboratory ETS, New Mexico MPS 341620
2010 08 05.33151 20 58 11.01 -03 15 03.9 19.8   704 – Lincoln Laboratory ETS, New Mexico MPS 341620
2010 08 07.27515 20 56 34.91 -03 17 10.1 19.6   704 – Lincoln Laboratory ETS, New Mexico MPS 343697
2010 08 07.28722 20 56 34.33 -03 17 10.9 19.5   704 – Lincoln Laboratory ETS, New Mexico MPS 343697
2010 08 07.31291 20 56 32.89 -03 17 12.6 20.4   704 – Lincoln Laboratory ETS, New Mexico MPS 343697
2010 08 07.32498 20 56 32.35 -03 17 14.3 19.5   704 – Lincoln Laboratory ETS, New Mexico MPS 343697
2010 08 10.89184 20 53 36.53 -03 22 15.5 19.2 V J75 – OAM Observatory, La Sagra MPS 343697
2010 08 10.90378 20 53 35.94 -03 22 16.3 19.0 V J75 – OAM Observatory, La Sagra MPS 343697
2010 08 10.91572 20 53 35.35 -03 22 18.0 19.5 V J75 – OAM Observatory, La Sagra MPS 343697
2010 08 13.28760 20 51 39.62 -03 26 22.8 19.6   704 – Lincoln Laboratory ETS, New Mexico MPS 344767
2010 08 13.30001 20 51 39.02 -03 26 23.5 19.6   704 – Lincoln Laboratory ETS, New Mexico MPS 344767
2010 08 13.31241 20 51 38.34 -03 26 25.8 19.6   704 – Lincoln Laboratory ETS, New Mexico MPS 344767
2010 08 13.32481 20 51 37.77 -03 26 26.9 19.6   704 – Lincoln Laboratory ETS, New Mexico MPS 344767
2010 09 06.14328 20 35 58.13 -04 29 29.5 20.2 R I41 – Palomar Mountain--ZTF MPS 1380495
2010 09 06.18896 20 35 56.83 -04 29 38.0 20.6 R I41 – Palomar Mountain--ZTF MPS 1380495
2011 10 25.42481 04 49 39.244 +28 06 35.15 19.9 w F51 – Pan-STARRS 1, Haleakala MPS 398032
2011 10 25.43933 04 49 38.922 +28 06 33.09 19.9 w F51 – Pan-STARRS 1, Haleakala MPS 398032
2011 10 25.45380 04 49 38.603 +28 06 31.10 19.9 w F51 – Pan-STARRS 1, Haleakala MPS 398032
2011 10 25.46825 04 49 38.282 +28 06 29.05 19.9 w F51 – Pan-STARRS 1, Haleakala MPS 398032
2011 11 02.47716 04 46 00.50 +27 43 31.1 19.7 V 691 – Steward Observatory, Kitt Peak-Spacewatch MPS 399865
2011 11 02.47965 04 46 00.43 +27 43 30.8 19.7 V 691 – Steward Observatory, Kitt Peak-Spacewatch MPS 399865
2011 11 02.49495 04 45 59.88 +27 43 27.7 19.9 V 691 – Steward Observatory, Kitt Peak-Spacewatch MPS 399865
2011 11 02.49743 04 45 59.76 +27 43 27.5 19.7 V 691 – Steward Observatory, Kitt Peak-Spacewatch MPS 399865
2011 11 02.51275 04 45 59.24 +27 43 24.1 19.9 V 691 – Steward Observatory, Kitt Peak-Spacewatch MPS 399865
2011 11 02.51523 04 45 59.17 +27 43 23.5 19.9 V 691 – Steward Observatory, Kitt Peak-Spacewatch MPS 399865
2011 11 03.32167 04 45 31.94 +27 40 42.5 19.5   704 – Lincoln Laboratory ETS, New Mexico MPS 399865
2011 11 03.35907 04 45 30.60 +27 40 35.7 19.8   704 – Lincoln Laboratory ETS, New Mexico MPS 399865
2011 11 03.37145 04 45 30.12 +27 40 33.4 19.7   704 – Lincoln Laboratory ETS, New Mexico MPS 399865
2011 11 16.25756 04 36 14.73 +26 47 37.9 19.7 V 691 – Steward Observatory, Kitt Peak-Spacewatch MPS 400990
2011 11 16.27534 04 36 13.81 +26 47 33.2 19.7 V 691 – Steward Observatory, Kitt Peak-Spacewatch MPS 400990
2011 11 16.29314 04 36 12.90 +26 47 28.2 19.5 V 691 – Steward Observatory, Kitt Peak-Spacewatch MPS 400990
2011 11 17.45338 04 35 14.12 +26 41 51.1 20.2   704 – Lincoln Laboratory ETS, New Mexico MPS 400990
2011 11 17.46592 04 35 13.30 +26 41 47.2 20.0   704 – Lincoln Laboratory ETS, New Mexico MPS 400990
2011 11 17.47855 04 35 12.60 +26 41 44.6 20.0   704 – Lincoln Laboratory ETS, New Mexico MPS 400990
2011 11 22.34675 04 30 56.44 +26 16 36.9 18.2 V 703 – Catalina Sky Survey MPS 402232
2011 11 22.35241 04 30 56.08 +26 16 35.1 18.4 V 703 – Catalina Sky Survey MPS 402232
2011 11 22.35804 04 30 55.80 +26 16 34.2 18.3 V 703 – Catalina Sky Survey MPS 402232
2011 11 22.36374 04 30 55.51 +26 16 31.4 18.1 V 703 – Catalina Sky Survey MPS 402232
2011 11 24.14584 04 29 18.92 +26 06 47.8 19.6 V 691 – Steward Observatory, Kitt Peak-Spacewatch MPS 402232
2011 11 24.16365 04 29 17.91 +26 06 42.1 19.4 V 691 – Steward Observatory, Kitt Peak-Spacewatch MPS 402232
